TimeEDT,TemperatureF,Dew PointF,Humidity,Sea Level PressureIn,VisibilityMPH,Wind Direction,Wind SpeedMPH,Gust SpeedMPH,PrecipitationIn,Events,Conditions,WindDirDegrees,DateUTC
12:15 AM,41.0,27.3,58,30.10,10.0,SW,15.0,21.9,N/A,,Clear,220,2013-10-26 04:15:00
12:34 AM,41.0,27.3,58,30.09,10.0,SW,15.0,24.2,N/A,,Scattered Clouds,230,2013-10-26 04:34:00
12:55 AM,41.0,27.5,59,30.08,10.0,SW,13.8,18.4,N/A,,Mostly Cloudy,230,2013-10-26 04:55:00
1:15 AM,41.0,27.5,59,30.08,10.0,SW,12.7,19.6,N/A,,Overcast,220,2013-10-26 05:15:00
1:34 AM,41.2,27.3,58,30.06,10.0,SW,13.8,21.9,N/A,,Overcast,230,2013-10-26 05:34:00
1:55 AM,41.4,27.3,57,30.05,10.0,SW,13.8,25.3,N/A,,Overcast,230,2013-10-26 05:55:00
2:15 AM,41.9,27.3,56,30.04,10.0,SW,17.3,27.6,N/A,,Overcast,230,2013-10-26 06:15:00
2:34 AM,41.9,27.5,57,30.02,10.0,SW,18.4,26.5,N/A,,Overcast,220,2013-10-26 06:34:00
2:55 AM,42.1,27.3,56,30.00,10.0,SW,16.1,28.8,N/A,,Overcast,220,2013-10-26 06:55:00
3:14 AM,42.3,27.1,55,30.00,10.0,SW,19.6,27.6,N/A,,Overcast,230,2013-10-26 07:14:00
3:35 AM,42.1,27.1,55,29.99,10.0,SW,19.6,29.9,N/A,,Overcast,230,2013-10-26 07:35:00
3:55 AM,41.9,27.0,55,29.99,10.0,WSW,19.6,32.2,N/A,,Overcast,240,2013-10-26 07:55:00
4:14 AM,41.5,26.6,55,29.98,10.0,SW,19.6,33.4,N/A,,Overcast,230,2013-10-26 08:14:00
4:35 AM,41.7,26.6,55,29.96,10.0,SW,21.9,31.1,N/A,,Overcast,230,2013-10-26 08:35:00
4:55 AM,41.5,26.6,55,29.95,10.0,SW,25.3,29.9,N/A,,Overcast,220,2013-10-26 08:55:00
5:14 AM,41.5,26.2,55,29.94,10.0,SW,21.9,35.7,N/A,,Overcast,230,2013-10-26 09:14:00
5:35 AM,41.4,26.4,55,29.93,10.0,SW,21.9,31.1,N/A,,Overcast,220,2013-10-26 09:35:00
5:55 AM,41.4,26.2,55,29.92,10.0,SW,18.4,26.5,N/A,,Overcast,230,2013-10-26 09:55:00
6:14 AM,41.9,26.2,54,29.91,10.0,SW,19.6,29.9,N/A,,Overcast,230,2013-10-26 10:14:00
6:35 AM,41.9,25.7,53,29.90,10.0,SW,18.4,29.9,N/A,,Overcast,220,2013-10-26 10:35:00
6:55 AM,42.4,26.1,52,29.88,10.0,SW,16.1,28.8,N/A,,Overcast,220,2013-10-26 10:55:00
7:14 AM,42.8,25.7,51,29.88,10.0,SW,18.4,27.6,N/A,,Overcast,230,2013-10-26 11:14:00
7:35 AM,42.8,26.1,52,29.87,10.0,SW,16.1,27.6,N/A,,Overcast,230,2013-10-26 11:35:00
7:55 AM,42.4,26.4,53,29.86,10.0,SW,21.9,32.2,N/A,,Overcast,230,2013-10-26 11:55:00
8:14 AM,42.4,26.6,54,29.86,10.0,SW,18.4,27.6,N/A,,Overcast,230,2013-10-26 12:14:00
8:35 AM,42.3,27.1,55,29.85,10.0,SW,16.1,27.6,N/A,,Overcast,230,2013-10-26 12:35:00
8:54 AM,42.3,27.3,56,29.84,10.0,SW,18.4,29.9,N/A,,Overcast,220,2013-10-26 12:54:00
9:14 AM,42.3,27.7,56,29.85,10.0,SW,15.0,25.3,N/A,,Overcast,220,2013-10-26 13:14:00
9:35 AM,42.3,27.7,56,29.85,10.0,SW,20.7,26.5,N/A,,Overcast,230,2013-10-26 13:35:00
9:54 AM,42.1,28.4,58,29.85,10.0,SW,13.8,27.6,N/A,,Overcast,230,2013-10-26 13:54:00
10:15 AM,41.5,29.3,62,29.84,10.0,SW,15.0,23.0,N/A,Rain,Light Rain,230,2013-10-26 14:15:00
10:35 AM,42.4,29.7,61,29.84,10.0,WSW,16.1,20.7,N/A,,Overcast,240,2013-10-26 14:35:00
10:54 AM,42.6,30.2,61,29.83,10.0,WSW,16.1,24.2,N/A,,Overcast,240,2013-10-26 14:54:00
11:15 AM,43.7,30.9,61,29.82,10.0,WSW,17.3,25.3,N/A,,Overcast,240,2013-10-26 15:15:00
11:35 AM,44.8,31.5,60,29.82,10.0,SW,13.8,26.5,N/A,,Mostly Cloudy,230,2013-10-26 15:35:00
11:54 AM,46.6,31.8,56,29.82,10.0,WSW,20.7,27.6,N/A,,Scattered Clouds,240,2013-10-26 15:54:00
12:15 PM,47.1,32.0,56,29.82,10.0,WSW,19.6,31.1,N/A,,Mostly Cloudy,250,2013-10-26 16:15:00
12:35 PM,47.7,32.4,55,29.82,10.0,WSW,19.6,26.5,N/A,,Overcast,240,2013-10-26 16:35:00
12:54 PM,48.2,33.1,56,29.81,10.0,West,13.8,24.2,N/A,,Overcast,260,2013-10-26 16:54:00
1:15 PM,48.2,33.4,57,29.81,10.0,WSW,16.1,23.0,N/A,,Overcast,240,2013-10-26 17:15:00
1:35 PM,48.2,33.4,57,29.81,10.0,West,19.6,25.3,N/A,,Overcast,260,2013-10-26 17:35:00
1:54 PM,48.2,33.8,58,29.81,10.0,WSW,13.8,20.7,N/A,,Overcast,250,2013-10-26 17:54:00
2:15 PM,47.7,33.8,59,29.81,10.0,West,13.8,23.0,N/A,,Overcast,260,2013-10-26 18:15:00
2:34 PM,48.2,34.7,60,29.81,10.0,WSW,13.8,18.4,N/A,,Overcast,250,2013-10-26 18:34:00
2:54 PM,48.4,35.4,61,29.81,10.0,West,13.8,20.7,N/A,,Overcast,260,2013-10-26 18:54:00
3:15 PM,48.4,36.5,64,29.82,10.0,West,15.0,25.3,N/A,,Overcast,270,2013-10-26 19:15:00
3:34 PM,48.6,37.4,65,29.82,10.0,West,13.8,24.2,N/A,,Overcast,260,2013-10-26 19:34:00
3:55 PM,49.6,38.1,65,29.83,10.0,West,15.0,26.5,N/A,,Overcast,270,2013-10-26 19:55:00
4:15 PM,48.9,37.9,66,29.84,10.0,West,16.1,21.9,N/A,,Overcast,270,2013-10-26 20:15:00
4:34 PM,48.7,38.7,68,29.84,10.0,West,13.8,19.6,N/A,,Overcast,260,2013-10-26 20:34:00
4:55 PM,46.8,40.6,79,29.86,4.0,WNW,18.4,25.3,N/A,Rain,Rain,300,2013-10-26 20:55:00
5:15 PM,46.0,41.0,83,29.86,10.0,WNW,9.2,-,N/A,,Overcast,290,2013-10-26 21:15:00
5:34 PM,46.8,40.3,78,29.88,10.0,WNW,10.4,21.9,N/A,,Overcast,300,2013-10-26 21:34:00
5:55 PM,46.4,38.5,74,29.89,10.0,NW,13.8,18.4,N/A,,Overcast,310,2013-10-26 21:55:00
6:14 PM,46.4,35.8,67,29.90,10.0,NW,10.4,18.4,N/A,,Overcast,320,2013-10-26 22:14:00
6:35 PM,45.7,35.8,68,29.91,10.0,WNW,10.4,16.1,N/A,,Overcast,300,2013-10-26 22:35:00
6:55 PM,45.5,35.6,68,29.92,10.0,WNW,8.1,-,N/A,,Overcast,290,2013-10-26 22:55:00
7:14 PM,45.1,35.4,69,29.93,10.0,WNW,9.2,-,N/A,,Overcast,300,2013-10-26 23:14:00
7:35 PM,45.5,35.1,67,29.94,10.0,WNW,6.9,-,N/A,,Overcast,300,2013-10-26 23:35:00
7:55 PM,45.5,34.7,66,29.96,10.0,NW,8.1,-,N/A,,Overcast,310,2013-10-26 23:55:00
8:14 PM,45.3,34.7,66,29.96,10.0,WNW,6.9,-,N/A,,Overcast,300,2013-10-27 00:14:00
8:35 PM,42.6,34.2,72,29.97,10.0,WNW,3.5,-,N/A,,Mostly Cloudy,290,2013-10-27 00:35:00
8:55 PM,40.5,33.6,77,29.97,10.0,West,3.5,-,N/A,,Scattered Clouds,280,2013-10-27 00:55:00
9:14 PM,39.9,33.8,79,29.98,10.0,West,3.5,-,N/A,,Mostly Cloudy,280,2013-10-27 01:14:00
9:35 PM,40.8,35.6,82,29.99,10.0,WNW,4.6,-,N/A,,Overcast,290,2013-10-27 01:35:00
9:55 PM,40.5,33.6,77,29.99,10.0,WNW,4.6,-,N/A,,Mostly Cloudy,290,2013-10-27 01:55:00
10:14 PM,39.7,32.7,76,30.00,10.0,WNW,4.6,-,N/A,,Scattered Clouds,290,2013-10-27 02:14:00
10:35 PM,39.4,32.2,75,30.01,10.0,West,3.5,-,N/A,,Scattered Clouds,280,2013-10-27 02:35:00
10:55 PM,36.7,32.4,84,30.01,10.0,West,3.5,-,N/A,,Mostly Cloudy,270,2013-10-27 02:55:00
11:14 PM,39.0,33.4,80,30.01,10.0,West,3.5,-,N/A,,Overcast,280,2013-10-27 03:14:00
11:35 PM,41.0,33.6,75,30.01,10.0,WNW,3.5,-,N/A,,Overcast,290,2013-10-27 03:35:00
11:54 PM,40.3,34.5,80,30.02,10.0,West,3.5,-,N/A,,Overcast,260,2013-10-27 03:54:00